Back to catalog

KHORS NO. 3

AliveAmateur RadioSSO
NORAD 61753·PAYLOAD·🇷🇺 Russia
This satellite name has not been confirmed by official sources yet.

Launched Nov 4, 2024 from Vostochny Cosmodrome

Loading…

Next Passes (next 24 hours)

TLE

FreshSource: Space-Track

Epoch: Sep 14, 2026, 14:46 UTC

1 61753U 24199U   26257.61543065  .00039553  00000-0  46220-3 0  9991
2 61753  97.2798 135.5763 0003160 334.1771  25.9328 15.61497434151484

Track KHORS NO. 3 in real time with AllMySat

Download on the App Store